Content
SEND FEEDBACK

Daily
Averages
Monthly
Summary
United States of America

INARAJAN, GUAM


Home > North America > United States > Guam
Elevation: 85 meters     Latitude: 13 18N     Longitude: 144 44E

WEATHER
 
SELECT A DAY
Number of Records: 341,524;   Date Range: 1/1/95 - 7/7/14
 
SHARE

PRINT THIS DATA

[ ← Previous Day ]
WEATHER ALMANAC - 14 FEBRUARY, 2013
[ Next Day → ]
[ °F ]   °C
Weather ElementAverageHighLow
Temperature25.9 °C28 °C (2:24 pm)24.9 °C (5:55 am)
Dewpoint22.4 °C24 °C (6:38 pm)20.5 °C (5:55 am)
Humidity81.2 %89 % (6:28 pm)68 % (10:55 am)
Barometer1009.8 hPa1011.9 hPa (9:57 am)1008.1 hPa (3:18 pm)
Wind Speed32.3 km/h38.9 km/h (3:55 pm)
Wind Gust48.1 km/h (6:28 pm)
Weather ElementAverage
Visibility16.1 km
Wind DirectionENE (53.1 °)

Weather ElementTotal
Precipitation---
Cooling Degree Days8.1 (Base 18.3)
Growing Degree Days16.4 (Base 10)
Averaged from 84 records on 14 February, 2013
WEATHER CONDITIONS BREAKOUT
WIND DIRECTION BREAKOUT
WEATHER BY HOUR - 14 FEBRUARY, 2013
[ °F ]   °C
Local TimeTemperatureDewpointHumidityBarometerVisibilityWind DirectionWind SpeedGust SpeedPrecipitationEventsConditions
1:55 AM25.4 °C21.8 °C80 %1010.8 hPa16.1 kmENE (70°)31.5 km/h40.7 km/hPartly Cloudy
2:35 AM25 °C22 °C83 %1010.8 hPa16.1 kmENE (60°)31.5 km/hMostly Cloudy
2:50 AM25 °C22 °C83 %1010.5 hPa16.1 kmENE (60°)27.8 km/h38.9 km/hMostly Cloudy
2:55 AM25.3 °C21.4 °C79 %1010.5 hPa16.1 kmENE (60°)33.3 km/h42.6 km/hScattered Clouds
2:57 AM25 °C21 °C78 %1010.5 hPa16.1 kmENE (60°)31.5 km/h42.6 km/hMostly Cloudy
3:06 AM25 °C22 °C83 %1010.5 hPa16.1 kmENE (60°)25.9 km/hScattered Clouds
3:55 AM25.1 °C21 °C78 %1010.2 hPa16.1 kmENE (60°)27.8 km/hPartly Cloudy
4:55 AM25 °C21 °C78 %1010.2 hPa16.1 kmENE (70°)25.9 km/hPartly Cloudy
5:14 AM25 °C21 °C78 %1010.2 hPa16.1 kmENE (60°)27.8 km/hMostly Cloudy
5:16 AM25 °C21 °C78 %1010.2 hPa16.1 kmNE (50°)29.6 km/hMostly Cloudy
5:18 AM25 °C21 °C78 %1010.2 hPa16.1 kmENE (60°)27.8 km/hMostly Cloudy
5:38 AM25 °C21 °C78 %1010.2 hPa16.1 kmENE (60°)27.8 km/hScattered Clouds
5:55 AM24.9 °C20.5 °C76 %1010.5 hPa16.1 kmENE (60°)27.8 km/hPartly Cloudy
6:55 AM25.2 °C21.1 °C78 %1011.2 hPa16.1 kmNE (50°)27.8 km/hScattered Clouds
7:07 AM25 °C21 °C78 %1010.8 hPa16.1 kmENE (60°)25.9 km/hMostly Cloudy
7:10 AM25 °C22 °C83 %1010.8 hPa16.1 kmNE (50°)25.9 km/hScattered Clouds
7:12 AM25 °C22 °C83 %1010.8 hPa16.1 kmNE (50°)31.5 km/hMostly Cloudy
7:18 AM25 °C22 °C83 %1010.8 hPa16.1 kmENE (60°)29.6 km/h37 km/hMostly Cloudy
7:49 AM26 °C22 °C78 %1011.2 hPa16.1 kmNE (50°)29.6 km/hMostly Cloudy
7:54 AM26 °C22 °C78 %1011.2 hPa16.1 kmNE (50°)25.9 km/hScattered Clouds
7:55 AM25.9 °C22 °C79 %1011.2 hPa16.1 kmNE (50°)27.8 km/hScattered Clouds
8:02 AM26 °C22 °C78 %1011.2 hPa16.1 kmNE (50°)27.8 km/hMostly Cloudy
8:13 AM26 °C22 °C78 %1011.2 hPa16.1 kmNE (50°)29.6 km/hMostly Cloudy
8:25 AM26 °C22 °C78 %1011.5 hPa16.1 kmNE (50°)33.3 km/hMostly Cloudy
8:38 AM26 °C22 °C78 %1011.5 hPa16.1 kmNE (40°)31.5 km/hMostly Cloudy
8:55 AM26.3 °C22.1 °C78 %1011.5 hPa16.1 kmNE (50°)33.3 km/hScattered Clouds
9:55 AM26.5 °C21.9 °C76 %1011.5 hPa16.1 kmNE (50°)35.2 km/h46.3 km/hScattered Clouds
9:57 AM27 °C22 °C74 %1011.9 hPa16.1 kmNE (50°)33.3 km/h46.3 km/hMostly Cloudy
10:10 AM27 °C22 °C74 %1011.5 hPa16.1 kmNE (50°)31.5 km/h42.6 km/hScattered Clouds
10:55 AM27.5 °C21.1 °C68 %1011.2 hPa16.1 kmENE (60°)37 km/h46.3 km/hPartly Cloudy
11:55 AM27.5 °C21.1 °C68 %1010.8 hPa16.1 kmNE (50°)35.2 km/hPartly Cloudy
12:55 PM27.6 °C21.8 °C70 %1009.8 hPa16.1 kmNE (50°)33.3 km/h40.7 km/hPartly Cloudy
1:55 PM27.5 °C22.6 °C74 %1009.1 hPa16.1 kmNE (50°)35.2 km/h44.4 km/hScattered Clouds
2:11 PM27 °C23 °C79 %1008.8 hPa16.1 kmNE (50°)29.6 km/hMostly Cloudy
2:21 PM27 °C23 °C79 %1008.8 hPa16.1 kmNE (40°)35.2 km/hScattered Clouds
2:24 PM28 °C23 °C74 %1008.8 hPa16.1 kmNE (50°)33.3 km/hMostly Cloudy
2:39 PM27 °C23 °C79 %1008.5 hPa16.1 kmNE (50°)35.2 km/hScattered Clouds
2:55 PM27.5 °C22.7 °C75 %1008.5 hPa16.1 kmNE (50°)33.3 km/h44.4 km/hScattered Clouds
3:18 PM28 °C23 °C74 %1008.1 hPa16.1 kmNE (50°)31.5 km/hMostly Cloudy
3:21 PM28 °C23 °C74 %1008.5 hPa16.1 kmNE (50°)35.2 km/hScattered Clouds
3:27 PM27 °C23 °C79 %1008.1 hPa16.1 kmNE (50°)35.2 km/h42.6 km/hMostly Cloudy
3:37 PM27 °C23 °C79 %1008.1 hPa16.1 kmNE (40°)35.2 km/h46.3 km/hRainLight Rain
3:41 PM27 °C23 °C79 %1008.1 hPa16.1 kmNE (50°)37 km/h46.3 km/hRainLight Rain
3:46 PM27 °C23 °C79 %1008.1 hPa16.1 kmNE (50°)35.2 km/h46.3 km/hMostly Cloudy
3:48 PM27 °C23 °C79 %1008.1 hPa16.1 kmNE (50°)35.2 km/h46.3 km/hScattered Clouds
3:55 PM27.1 °C22.7 °C77 %1008.1 hPa16.1 kmNE (40°)38.9 km/h46.3 km/h0 mmScattered Clouds
4:03 PM27 °C23 °C79 %1008.1 hPa16.1 kmNE (50°)35.2 km/hMostly Cloudy
4:10 PM27 °C23 °C79 %1008.1 hPa16.1 kmNE (50°)35.2 km/hScattered Clouds
4:55 PM26.7 °C22.7 °C79 %1008.5 hPa16.1 kmNE (50°)38.9 km/h44.4 km/hScattered Clouds
5:12 PM27 °C23 °C79 %1008.5 hPa16.1 kmNE (50°)37 km/hMostly Cloudy
5:15 PM27 °C23 °C79 %1008.5 hPa16.1 kmENE (60°)33.3 km/hScattered Clouds
5:22 PM26 °C23 °C83 %1008.5 hPa16.1 kmNE (50°)38.9 km/h46.3 km/hMostly Cloudy
5:24 PM26 °C23 °C83 %1008.5 hPa16.1 kmNE (50°)38.9 km/h46.3 km/hScattered Clouds
5:55 PM25.6 °C23.1 °C86 %1008.5 hPa16.1 kmNE (50°)33.3 km/h42.6 km/hScattered Clouds
6:28 PM25 °C23 °C89 %1008.8 hPa16.1 kmNE (50°)37 km/h48.1 km/hMostly Cloudy
6:37 PM26 °C23 °C83 %1008.8 hPa14.5 kmNE (50°)29.6 km/hRainLight Rain
6:38 PM26 °C24 °C89 %1008.8 hPa12.9 kmNE (50°)31.5 km/hRainLight Rain
6:47 PM25 °C23 °C89 %1008.8 hPa14.5 kmNE (50°)38.9 km/h44.4 km/hRainLight Rain
6:48 PM25 °C23 °C89 %1008.8 hPa16.1 kmNE (50°)37 km/h44.4 km/hOvercast
6:49 PM25 °C23 °C89 %1008.8 hPa16.1 kmNE (50°)33.3 km/h44.4 km/hOvercast
6:50 PM25 °C23 °C89 %1008.8 hPa16.1 kmNE (50°)33.3 km/hOvercast
6:53 PM25 °C23 °C89 %1008.8 hPa16.1 kmNE (50°)38.9 km/hMostly Cloudy
6:55 PM25.1 °C23.2 °C89 %1008.8 hPa16.1 kmNE (50°)37 km/h0 mmMostly Cloudy
6:59 PM25 °C23 °C89 %1009.1 hPa16.1 kmNE (50°)35.2 km/hMostly Cloudy
7:02 PM25 °C23 °C89 %1009.1 hPa16.1 kmNE (50°)29.6 km/h46.3 km/hMostly Cloudy
7:04 PM25 °C23 °C89 %1009.1 hPa16.1 kmNE (50°)35.2 km/h46.3 km/hMostly Cloudy
7:27 PM25 °C23 °C89 %1009.1 hPa16.1 kmNE (50°)29.6 km/h44.4 km/hMostly Cloudy
7:28 PM25 °C23 °C89 %1009.1 hPa16.1 kmNE (50°)29.6 km/h44.4 km/hMostly Cloudy
7:48 PM25 °C23 °C89 %1009.1 hPa16.1 kmNE (50°)33.3 km/hMostly Cloudy
7:49 PM25 °C23 °C89 %1009.1 hPa16.1 kmNE (50°)31.5 km/hScattered Clouds
7:55 PM25.2 °C22.5 °C85 %1009.1 hPa16.1 kmENE (60°)33.3 km/hScattered Clouds
8:55 PM25.3 °C22.8 °C86 %1009.5 hPa16.1 kmNE (50°)29.6 km/hScattered Clouds
8:59 PM25 °C23 °C89 %1009.5 hPa16.1 kmNE (50°)24.1 km/h38.9 km/hMostly Cloudy
9:55 PM25.4 °C23.1 °C87 %1009.8 hPa16.1 kmENE (60°)33.3 km/h40.7 km/hMostly Cloudy
9:56 PM25 °C23 °C89 %1009.8 hPa16.1 kmENE (60°)33.3 km/h40.7 km/hMostly Cloudy
10:04 PM25 °C23 °C89 %1009.8 hPa16.1 kmENE (60°)33.3 km/h42.6 km/hMostly Cloudy
10:14 PM26 °C23 °C83 %1009.8 hPa16.1 kmENE (60°)31.5 km/h42.6 km/hMostly Cloudy
10:24 PM26 °C23 °C83 %1010.2 hPa16.1 kmENE (60°)33.3 km/hMostly Cloudy
10:27 PM26 °C23 °C83 %1010.2 hPa16.1 kmENE (60°)31.5 km/hMostly Cloudy
10:35 PM26 °C23 °C83 %1010.2 hPa16.1 kmENE (60°)35.2 km/h42.6 km/hMostly Cloudy
10:55 PM25.6 °C22.7 °C84 %1010.2 hPa16.1 kmENE (60°)31.5 km/h44.4 km/hMostly Cloudy
10:57 PM26 °C23 °C83 %1010.2 hPa16.1 kmENE (60°)31.5 km/h44.4 km/hMostly Cloudy
11:02 PM26 °C22 °C78 %1010.2 hPa16.1 kmENE (60°)29.6 km/h42.6 km/hMostly Cloudy
11:55 PM25.4 °C22.7 °C85 %1009.8 hPa16.1 kmENE (60°)29.6 km/h40.7 km/hPartly Cloudy
Hourly data recorded from PGUA, located 0 kilometers away from Inarajan, Guam







STORIES FROM OUR PARTNERS